Regional Weather Roundup
Issued by NWS Charleston, SC

Current Version | Previous Version | Graphics & Text | Print | Product List | Glossary On
Versions: 1 2 3 4 5 6 7 8 9 10 11 12 13 14 15 16 17 18 19 20 21 22 23 24 25 26 27 28 29 30 31 32 33 34 35 36 37 38 39 40 41 42 43 44 45 46 47 48 49 50
000 ASUS42 KCHS 260413 RWRCHS REGIONAL WEATHER ROUNDUP NATIONAL WEATHER SERVICE CHARLESTON SC 1200 AM EDT MON SEP 26 2016 NOTE: "FAIR" INDICATES FEW OR NO CLOUDS BELOW 12,000 FEET WITH NO SIGNIFICANT WEATHER AND/OR OBSTRUCTIONS TO VISIBILITY. NOT ALL STATIONS ARE QUALITY CONTROLLED. USE DATA WITH CAUTION... ESPECIALLY DEWPOINT OBSERVATIONS. SCZ027-030-031-034>040-042>050-260500- ...SOUTHEAST SOUTH CAROLINA... CITY SKY/WX TMP DP RH WIND PRES REMARKS N CHARLESTON PTCLDY 75 72 90 NE6 30.07F WATERFRONT PRK N/A 79 76 91 E8 30.04F MOUNT PLEASANT FAIR 77 73 88 CALM 30.07F JOHNS ISLAND FAIR 79 75 89 E10 30.06F PINOPOLIS N/A 75 73 94 VRB3 30.01F MONCKS CORNER FAIR 72 72 100 E5 30.08S SUMMERVILLE FAIR 73 73 100 CALM 30.08F BEAUFORT MCAS CLEAR 77 74 90 NE7 30.05F BEAUFORT ARPT FAIR 77 72 83 E7 30.05S HILTON HEAD IS MOCLDY 81 73 78 NE8 30.05F WALTERBORO CLEAR 73 N/A N/A E3 30.08S ALLENDALE FAIR 73 72 94 CALM 30.06F ...SOUTHERN MIDLANDS AND PEE DEE... CITY SKY/WX TMP DP RH WIND PRES REMARKS GEORGETOWN FAIR 75 70 83 E8 30.10S KINGSTREE FAIR 72 70 94 CALM 30.09S FOG ORANGEBURG CLEAR 74 71 91 SE3 30.09S BARNWELL NOT AVBL AIKEN FAIR 72 66 83 CALM 30.12S MANNING FAIR 72 68 88 CALM 30.09S COLUMBIA CLEAR 76 69 79 E6 30.08S SUMTER CLEAR 74 71 89 SE2 30.07F FLORENCE MOCLDY 74 70 87 E8 30.11S MYRTLE BEACH CLOUDY 79 64 61 E13 30.12S N MYRTLE BEACH PTCLDY 74 68 81 NE6 30.10S $$ GAZ063-065-086>088-099>101-113>116-118-119-134>141-150-260500- ...SOUTHEAST GEORGIA... CITY SKY/WX TMP DP RH WIND PRES REMARKS SAVANNAH ARPT PTCLDY 76 73 91 NE7 30.05F HUNTER AAF MOCLDY 78 77 96 NE5 30.02S FORT STEWART CLOUDY 72 70 91 CALM 30.03S STATESBORO PTCLDY 74 73 96 CALM 30.06S SYLVANIA NOT AVBL CLAXTON FAIR 70 70 100 CALM 30.06R ...CSRA...CENTRAL AND FAR SOUTHEAST GEORGIA... CITY SKY/WX TMP DP RH WIND PRES REMARKS THOMSON CLEAR 76 70 82 CALM 30.11S AUGUSTA-BUSH CLEAR 69 68 96 CALM 30.06F FOG AUGUSTA-DANIEL CLEAR 77 66 68 E3 30.08F SWAINSBORO FAIR 73 68 83 E3 30.08R VIDALIA MOCLDY 73 72 94 S3 30.07S EASTMAN FAIR 75 60 59 S3 30.10R HAZLEHURST FAIR 76 73 90 CALM 30.06S ALMA CLOUDY 73 71 93 CALM 30.06S WAYCROSS CLOUDY 76 75 98 CALM 30.06F JESUP FAIR 73 73 100 CALM 30.06S BAXLEY FAIR 73 73 100 CALM 30.06S BRUNSWICK CLOUDY 77 75 94 CALM 30.04S SAINT SIMONS CLOUDY 81 73 76 E10 30.03S $$ SCZ027-028-034-036>038-045-046-048>050-GAZ119-141-260500- ...LAKE AND SUPPLEMENTAL COASTAL OBSERVATIONS... STATION/POSITION TIME TEMP WIND PRES WAVE SWELL AIR SEA DIR/SP/G HT/PER HT/PER/DIR (UTC) (F) (DEG/KT/KT) (MB) (FT/S) (FT/S/D) WINYAH BAY 0245 79 90/ 11 1018.0 LAKE MURRAY 0320 79 140/ 7/ 9 1017.9 ACE BASIN NERRS 0245 76 CALM 1019.0 FORT PULASKI 0348 81 81 60/ 14/ 17 1017.8F SAPELO ISLAND 0300 80 70/ 7 1017.0 $$ ANZ835-935-AMZ111-154-330-350-352-354-370-450-454-472-260500- ...C-MAN AND BUOY OBSERVATIONS... STATION/POSITION TIME TEMP WIND PRES WAVE SWELL AIR SEA DIR/SP/G HT/PER HT/PER/DIR (UTC) (F) (DEG/KT/KT) (MB) (FT/S) (FT/S/D) BUOY 41004 0350 81 82 70/ 19/ 23 1016.9F 5/ 5 2/ 90/ 9 BUOY 41008 0350 81 82 80/ 16/ 17 1016.3F 4/ 5 2/110/10 FOLLY BEACH CMAN 0300 80 70/ 15/ 17 1018.4F CAPERS NEARSHORE 0308 80 81 80/ 16/ 21 1018.1F FRIPP NEARSHORE 0308 80 81 90/ 16/ 19 1017.7F STATION/POSITION TIME TEMP WIND PRES WAVE SWELL AIR SEA DIR/SP/G HT/PER HT/PER/DIR (UTC) (F) (DEG/KT/KT) (MB) (FT/S) (FT/S/D) 5E ST. MARYS GA 0301 83 N/A 4/11 2/100/11 FRYING PAN BUOY 0350 79 82 70/ 16/ 21 1018.6F 5/ 5 2/110/ 8 BUOY 41025 0350 74 84 40/ 14/ 17 1019.7F 3/ 9 2/ 70/ 9 CAPE LOOKOUT NC 0300 74 60/ 15/ 17 1020.2F BUOY 41002 0350 81 83 60/ 14/ 16 1017.1F 4/ 9 2/ 90/ 9 BUOY 41010 NOT AVBL ST AUGUSTINE FL 0400 79 84 310/ 3/ 4 1017.1F $$

USA.gov is the U.S. government's official web portal to all federal, state and local government web resources and services.